SCP
2 2 2 2 1 1 1 1 1 1 1 0 1 1 1 0 0 0 0 0 0 0 0 0 0 1 1 1 1 0 0 0 0 0 0 0 0 0 0 0 0 0 0
2 2 2 2 1 1 1 1 1 1 1 1 1 1 1 1 1 1 0 0 0 0 1 1 1 1 1 1 1 1 1 0 0 0 0 0 0 0 0 0 0 0 0
2 2 2 1 1 1 1 1 1 1 1 1 1 1 1 1 1 1 1 1 1 1 1 1 1 1 1 1 1 1 1 1 1 1 1 0 0 0 0 0 1 0 0
2 2 1 1 1 1 1 1 1 1 1 1 1 1 1 1 1 1 1 1 1 1 1 1 1 1 1 1 1 1 0 1 1 1 1 1 1 1 1 1 1 1 1
2 2 1 1 1 1 1 1 1 1 1 1 1 1 1 1 1 1 1 1 1 1 1 1 1 1 1 1 1 0 0 0 1 1 1 1 1 1 1 1 1 1 1
2 1 1 1 1 1 1 1 1 1 1 1 1 1 1 1 1 1 1 1 2 2 2 2 1 1 1 1 1 0 0 0 0 1 1 1 1 1 1 1 1 1 1
2 1 1 1 1 1 1 1 1 1 1 1 1 1 1 1 1 1 2 2 2 2 2 2 2 1 1 1 1 0 0 0 0 0 1 1 1 1 1 1 1 1 1
2 1 1 1 1 1 1 1 1 1 1 1 1 1 1 1 1 2 2 2 2 2 2 1 1 1 1 1 0 0 0 0 0 0 0 1 1 1 0 0 0 1 1
3 2 1 1 1 1 1 1 1 1 1 1 1 1 1 1 1 2 2 2 2 2 1 1 1 0 0 0 0 0 0 0 0 0 0 0 0 0 0 0 0 0 0
3 3 2 1 1 1 1 1 1 1 1 1 1 1 1 1 1 1 1 1 1 1 1 0 0 0 0 0 0 0 0 0 0 0 0 0 0 0 0 0 0 0 0
4 4 3 1 1 1 1 1 1 1 1 1 1 1 1 1 1 1 1 1 1 1 0 0 0 0 0 0 0 0 0 0 0 0 0 0 0 0 0 0 0 0 0
4 4 2 1 1 1 1 0 0 0 1 1 1 1 1 1 1 1 1 1 0 0 0 0 0 0 0 0 0 0 0 0 0 0 0 0 0 0 0 0 0 0 0
3 3 2 1 1 1 1 1 1 1 1 1 1 1 1 1 1 1 1 1 0 0 0 0 0 0 0 0 0 0 0 0 0 0 0 0 0 0 0 0 0 0 0
2 2 2 2 2 2 2 1 1 1 1 1 1 1 1 1 1 1 1 1 1 0 0 0 0 0 0 0 0 0 0 0 0 0 0 1 1 1 1 0 0 1 1
2 2 3 3 4 4 3 2 1 1 1 1 1 1 1 1 1 1 1 1 1 1 1 1 1 1 1 0 0 0 0 0 0 1 1 1 2 2 1 1 1 1 1
3 4 4 4 4 4 3 3 2 1 1 1 1 1 0 1 1 1 1 1 1 1 1 1 1 1 1 1 1 1 1 1 1 1 1 2 2 2 2 2 2 2 2
5 5 5 4 3 3 3 3 2 2 2 2 1 1 0 1 1 1 1 1 1 1 1 1 1 1 2 2 2 2 2 2 2 2 2 2 2 2 3 3 3 3 2
6 6 5 4 4 4 4 4 3 3 3 3 2 1 1 1 1 1 2 2 2 2 2 2 2 3 3 4 4 4 3 3 3 3 2 2 2 2 3 4 4 4 3
8 6 6 5 5 5 4 4 4 4 4 4 3 3 2 2 2 2 2 2 2 3 3 3 3 4 5 5 5 4 4 3 3 2 2 2 2 2 2 3 4 4 4
9 8 8 8 7 6 5 5 5 4 4 4 5 4 4 3 3 3 3 3 4 4 4 4 4 5 5 5 4 4 4 3 2 2 2 2 2 2 2 2 4 4 4
10 9 9 9 8 7 7 6 6 5 4 5 6 6 6 5 5 4 4 4 4 5 5 5 4 4 4 4 3 3 3 3 2 2 1 1 1 1 1 2 3 3 3
10 9 10 9 8 8 8 7 6 5 5 5 6 6 6 5 5 4 5 4 4 4 4 4 4 4 3 3 3 2 2 1 1 1 1 1 1 1 1 1 2 2 2
8 8 8 8 8 7 7 6 6 5 5 5 5 5 5 4 4 4 4 3 3 3 3 4 4 3 3 2 2 2 1 1 1 0 0 1 1 1 1 1 1 1 1
4 5 6 6 6 6 6 6 5 5 4 4 4 4 3 3 3 3 3 3 3 3 3 3 3 3 2 2 1 1 1 1 1 0 0 0 1 1 1 1 1 1 1
2 2 3 4 4 4 4 5 4 3 3 2 2 2 2 2 3 3 3 3 3 3 2 2 2 2 2 1 1 1 1 1 1 0 0 0 0 1 1 1 1 1 1
1 2 2 3 3 3 3 3 3 2 2 1 1 1 2 2 3 3 3 3 3 3 2 2 1 1 1 1 1 0 0 0 0 0 0 0 0 0 1 1 1 1 1
Wind_Speed
14 15 15 14 13 12 11 10 9 10 10 9 9 10 10 10 10 9 9 9 8 8 9 9 9 9 9 10 10 9 8 7 5 4 3 1 2 2 3 4 4 2 7
18 16 15 14 13 12 11 10 9 10 10 9 9 9 9 9 9 9 8 7 7 7 8 9 10 10 10 10 9 8 7 6 5 6 7 4 5 4 2 2 4 3 4
17 15 14 13 13 12 11 10 9 10 11 10 10 10 10 9 8 8 8 7 7 7 9 9 10 10 10 9 8 7 6 6 8 9 10 7 6 6 3 3 4 1 2
16 13 14 14 13 12 11 10 9 10 11 11 12 12 10 9 8 8 7 7 7 7 7 8 8 8 8 7 6 5 5 6 9 11 7 5 5 6 4 5 6 4 3
15 14 13 14 13 12 10 10 9 10 10 11 12 11 11 10 8 8 7 7 7 6 7 7 8 7 7 6 5 4 4 6 9 10 4 8 7 7 7 7 6 5 1
16 15 13 13 13 11 10 10 10 10 10 10 11 11 10 9 8 7 7 8 8 8 8 9 9 9 8 7 6 5 3 5 8 5 4 7 7 9 10 8 7 5 3
16 15 13 12 12 11 10 10 10 10 10 10 10 9 8 7 7 7 8 9 10 10 10 11 11 10 9 7 5 3 3 5 3 4 5 7 6 8 9 9 9 7 6
16 15 13 12 12 11 10 9 9 9 9 9 9 8 7 6 6 7 8 10 11 12 12 11 10 9 7 5 3 1 2 4 4 3 4 7 7 7 7 7 8 7 7
16 15 13 12 11 11 11 10 9 8 8 9 9 8 8 8 8 10 11 11 12 12 12 11 10 9 7 5 3 0 2 4 3 2 4 5 6 6 6 6 7 7 7
13 12 14 13 13 12 11 11 10 9 8 8 8 8 8 9 10 11 10 10 11 11 10 10 9 8 6 4 3 2 4 5 2 2 4 5 6 4 4 4 5 6 6
13 10 12 14 12 12 11 11 10 10 9 9 8 9 8 6 7 8 9 9 9 10 9 9 9 8 6 5 5 5 5 3 3 2 4 6 5 1 4 5 6 6 6
11 11 10 13 13 12 10 9 7 8 8 7 6 8 6 5 4 8 10 9 10 10 10 10 10 8 7 4 7 8 4 5 3 4 5 9 7 3 3 6 8 8 8
12 13 13 10 8 9 8 7 5 4 5 5 5 3 3 4 6 7 5 6 6 8 6 7 7 6 5 2 2 3 3 3 2 1 6 10 9 7 5 6 7 9 9
13 13 13 11 9 7 5 4 3 3 3 4 3 1 2 1 2 4 4 6 6 5 4 3 4 4 1 2 4 4 4 3 2 1 5 11 10 9 9 9 9 10 10
11 13 13 12 9 6 5 3 5 5 4 4 3 2 2 1 1 2 2 2 2 3 3 3 3 1 1 5 5 4 4 4 4 4 1 10 12 11 12 13 13 13 12
12 14 14 13 8 6 4 4 3 4 2 3 4 4 4 3 3 2 0 1 3 2 3 3 5 4 3 4 5 5 5 5 5 4 4 4 9 13 15 16 16 15 14
11 13 13 12 7 6 6 4 4 4 3 5 4 2 3 3 3 3 2 1 2 2 2 2 5 4 4 5 5 5 5 5 5 5 5 5 6 11 16 17 16 15 15
13 11 6 8 7 5 4 3 4 4 4 4 4 3 1 3 2 3 4 2 1 2 3 3 3 3 4 4 4 5 6 6 7 7 6 6 6 7 8 13 16 17 17
17 9 3 2 6 6 5 3 5 3 3 2 2 3 3 1 2 2 3 3 3 2 3 5 4 4 5 6 6 6 6 6 6 9 8 9 9 8 7 10 17 21 21
13 9 5 3 4 5 4 2 3 3 1 0 2 3 4 2 4 3 3 6 6 4 4 5 6 5 5 5 9 9 6 7 7 7 9 9 7 10 10 10 7 11 19
12 8 5 4 3 2 2 1 2 2 1 1 2 5 5 5 6 4 4 5 5 5 5 6 5 6 5 5 7 8 7 8 8 7 8 8 9 8 6 5 3 3 6
11 7 6 6 5 3 3 2 2 2 1 3 4 6 6 5 4 4 5 4 5 5 6 6 6 5 7 7 7 9 10 9 7 11 6 6 7 6 7 10 6 6 5
14 13 11 10 9 8 6 3 3 3 4 5 5 5 6 5 4 3 3 4 4 4 5 7 7 8 8 7 6 8 11 14 8 7 9 8 7 7 7 7 8 8 9
14 14 14 13 12 11 10 9 8 7 5 5 4 3 4 5 5 5 4 4 4 4 6 8 8 8 9 10 8 7 9 11 13 13 8 7 8 8 8 10 9 8 8
14 13 13 13 12 12 11 11 10 9 7 5 5 5 5 5 6 6 5 5 6 5 6 8 8 8 8 11 11 10 11 10 12 13 15 8 7 6 6 6 5 5 6
13 12 12 11 10 10 9 9 9 8 7 7 6 6 6 5 6 7 7 7 7 6 7 8 8 10 9 10 10 10 10 11 11 11 14 12 10 8 8 7 6 5 6
Wind_Direction
103 107 108 107 104 102 99 98 110 122 122 123 120 117 112 107 104 98 88 80 76 77 80 83 84 84 80 76 70 64 57 46 30 9 4 82 109 103 87 62 8 51 95
109 109 110 111 109 105 101 99 103 121 126 123 117 113 108 103 103 102 97 89 82 79 80 83 83 82 79 74 67 58 45 24 353 331 320 280 196 183 170 86 27 62 106
108 114 115 117 114 110 105 102 102 117 127 122 116 109 104 101 100 101 98 93 87 85 85 85 85 83 80 75 66 51 28 358 337 327 309 280 191 178 166 70 27 357 180
119 117 113 123 118 114 112 110 108 114 124 123 118 113 109 106 103 101 99 93 87 84 86 89 89 87 84 79 69 51 19 346 326 316 306 355 117 116 96 53 27 19 208
106 105 115 120 118 120 121 120 116 115 119 121 120 118 118 115 111 108 105 104 99 91 87 91 93 92 90 88 82 63 24 341 320 304 11 65 75 72 61 44 27 18 357
119 115 116 119 123 130 135 133 127 124 122 122 124 125 124 121 115 110 108 107 107 104 102 105 105 100 93 87 82 71 37 350 329 315 69 76 64 48 45 36 27 16 359
120 120 123 125 133 139 142 140 135 133 129 129 131 134 131 125 122 118 115 114 113 113 113 111 108 105 103 98 88 67 26 349 344 348 72 82 72 56 42 25 17 15 7
125 122 126 133 137 138 139 134 128 127 129 135 139 143 143 141 135 126 122 121 119 117 116 118 118 119 118 117 125 145 25 350 352 337 91 88 67 53 38 20 5 358 355
130 131 138 141 140 137 134 131 129 130 135 141 147 157 163 157 141 131 127 127 126 126 128 130 132 134 139 148 161 301 345 326 301 288 84 83 60 41 23 6 351 347 344
130 135 141 144 144 145 136 133 133 136 143 148 159 171 170 155 143 136 131 130 133 135 137 141 145 151 162 172 189 254 290 298 277 60 92 96 74 33 352 332 322 322 323
131 147 150 147 147 136 134 137 142 144 149 153 169 180 170 168 149 144 124 134 140 144 151 163 171 176 186 204 223 237 261 253 188 149 125 127 123 59 318 309 303 298 298
146 147 142 143 144 140 137 147 157 163 160 186 174 178 186 172 148 129 138 149 156 163 174 188 194 198 208 216 221 226 244 250 217 175 154 157 159 177 272 294 298 295 292
163 159 150 140 131 137 143 163 160 146 153 175 138 142 154 152 150 143 158 161 173 181 198 192 205 222 212 186 257 226 228 283 281 189 154 175 179 189 221 253 270 278 284
166 144 122 109 78 52 76 113 150 135 141 114 111 234 168 176 201 150 171 176 178 197 212 205 219 191 258 267 254 267 266 256 307 325 171 190 197 202 215 228 238 248 257
142 120 112 99 91 77 52 42 63 58 68 94 107 53 358 200 111 84 49 11 259 164 179 256 297 44 323 287 272 278 306 312 292 270 219 204 211 214 222 227 230 233 238
135 122 117 113 113 115 101 87 87 92 75 88 68 53 354 23 51 46 140 343 324 350 41 5 322 311 278 275 288 289 283 281 277 277 277 250 225 228 230 231 230 229 233
122 117 119 119 130 139 133 147 128 130 121 93 89 68 358 9 40 349 313 212 292 346 358 278 278 284 279 274 270 276 280 278 291 295 290 278 260 249 239 233 230 230 233
76 64 81 125 128 107 95 79 77 74 84 100 122 119 69 22 6 337 314 301 348 333 309 278 263 279 289 306 315 314 312 304 294 283 276 273 273 278 264 236 228 227 228
83 74 332 118 139 132 123 105 92 80 60 80 103 110 112 13 320 317 312 332 335 311 306 312 347 349 331 330 317 299 287 285 293 297 295 284 274 263 258 246 229 223 223
113 143 199 189 127 127 131 125 115 114 135 105 83 81 76 33 4 357 331 9 350 341 353 359 339 327 321 308 298 294 293 285 276 269 271 275 274 269 263 256 238 222 224
128 155 181 148 119 116 106 142 122 126 118 62 67 74 63 43 31 8 355 1 348 353 352 328 322 319 311 303 297 288 276 273 279 277 269 266 267 272 282 285 275 256 224
88 98 82 70 59 41 47 28 42 47 31 56 52 54 43 34 17 352 20 347 358 346 323 326 336 318 302 296 293 298 297 288 274 280 282 284 295 311 308 297 284 274 269
67 64 64 59 49 38 32 25 37 29 24 34 37 39 16 354 343 347 346 346 349 332 324 336 316 307 313 311 300 293 292 290 288 284 284 284 280 275 276 284 277 266 258
73 70 65 60 53 44 40 34 36 39 31 26 16 40 357 335 340 341 335 336 338 332 322 315 329 331 312 301 295 286 284 293 297 295 276 274 279 277 269 271 271 268 261
80 75 68 62 56 49 43 40 37 31 19 7 356 2 351 337 338 328 336 358 359 337 327 325 317 312 306 300 299 300 300 298 293 289 290 287 278 275 275 274 278 281 283
81 78 73 67 62 54 47 41 34 21 359 343 339 337 342 334 323 331 353 8 345 330 323 317 313 307 304 303 303 301 300 300 301 300 299 304 303 306 312 318 317 316 319